Weather reports worldwide

Advertisment
Benson, United Kingdom (3658): temperature & dewpoint: 09.11.2018 05:00:00 - 15.11.2018 05:00:00 (GMT)Benson, United Kingdom (3658): temperature -20cm & temperature -100cm: 09.11.2018 05:00:00 - 15.11.2018 05:00:00 (GMT)Benson, United Kingdom (3658): wind speed & gusts: 09.11.2018 05:00:00 - 15.11.2018 05:00:00 (GMT)Benson, United Kingdom (3658): wind direction: 09.11.2018 05:00:00 - 15.11.2018 05:00:00 (GMT)Benson, United Kingdom (3658): reduced air pressure: 09.11.2018 05:00:00 - 15.11.2018 05:00:00 (GMT)Benson, United Kingdom (3658): visibility: 09.11.2018 05:00:00 - 15.11.2018 05:00:00 (GMT)Benson, United Kingdom (3658): precipitation: 09.11.2018 05:00:00 - 15.11.2018 05:00:00 (GMT)
Date & Time tt [°C] td [°C] tt -20cm [°C] tt -100cm [°C] ff [km/h] ff [kn] fx [km/h] fx [kn] dd ppp [hPa] vv [km] rr [mm]
15.11.2018 05:00:00 - - - - - - - - - - - -
15.11.2018 04:00:00 10,5 10,4 - - 2 1 - - SE 1020,0 4,6 0,0
15.11.2018 03:00:00 10,0 9,9 - - 2 1 - - S 1020,0 2,0 0,0
15.11.2018 02:00:00 10,1 10,0 - - 4 2 - - ESE 1020,1 3,2 0,0
15.11.2018 01:00:00 9,7 9,7 - - 2 1 - - SE 1019,9 1,7 0,0
15.11.2018 00:00:00 9,0 9,0 - - 2 1 - - SSW 1020,4 4,0 0,0
14.11.2018 23:00:00 7,6 7,5 - - 5 3 - - NNW 1020,6 3,0 0,0
14.11.2018 22:00:00 4,0 2,9 - - 0 0 - - N 1020,9 4,0 0,0
14.11.2018 21:00:00 8,9 8,0 - - 5 3 - - S 1020,7 15 0,0
14.11.2018 20:00:00 10,6 9,7 - - 16 9 - - SSE 1020,7 10 0,0
14.11.2018 19:00:00 9,4 7,8 - - 11 6 - - SSE 1020,9 10 0,0
14.11.2018 18:00:00 9,9 7,9 - - 15 8 - - SSE 1020,6 35 0,0
14.11.2018 17:00:00 9,6 7,1 - - 15 8 - - SSE 1020,5 10 0,0
14.11.2018 16:00:00 11,9 7,6 - - 15 8 - - SSE 1020,4 10 0,0
14.11.2018 15:00:00 13,8 8,2 - - 16 9 - - S 1020,4 10 0,0
14.11.2018 14:00:00 14,3 7,9 - - 24 13 - - S 1020,5 10 0,0
14.11.2018 13:00:00 14,3 8,3 - - 21 11 - - S 1021,0 10 0,0
14.11.2018 12:00:00 14,0 9,3 - - 21 11 - - S 1021,5 10 0,0
14.11.2018 11:00:00 12,5 9,1 - - 24 13 - - S 1021,9 10 0,0
14.11.2018 10:00:00 11,7 9,4 - - 22 12 - - S 1022,1 10 0,0
14.11.2018 09:00:00 10,8 9,4 9,9 11,0 22 12 - - S 1022,0 25 0,0
14.11.2018 08:00:00 9,8 8,2 - - 18 10 - - S 1021,8 10 0,0
14.11.2018 07:00:00 9,8 8,0 - - 18 10 - - S 1021,6 10 0,0
14.11.2018 06:00:00 11,1 8,4 - - 21 11 - - S 1021,4 30 0,0
14.11.2018 05:00:00 11,1 8,4 - - 22 12 - - S 1021,4 10 0,0
14.11.2018 04:00:00 11,4 8,7 - - 21 11 - - S 1021,3 10 0,0
14.11.2018 03:00:00 11,3 9,0 - - 22 12 - - S 1021,8 10 0,0
14.11.2018 02:00:00 11,2 9,2 - - 24 13 - - S 1022,5 27 0,0
14.11.2018 01:00:00 10,8 9,1 - - 22 12 - - S 1023,2 10 0,0
14.11.2018 00:00:00 10,4 8,8 - - 18 10 - - S 1023,9 23 0,0
13.11.2018 23:00:00 9,5 8,5 - - 16 9 - - SSE 1024,0 10 0,0
13.11.2018 22:00:00 8,8 7,8 - - 16 9 - - S 1024,3 21 0,0
13.11.2018 21:00:00 8,5 7,4 - - 13 7 - - S 1024,5 24 0,0
13.11.2018 20:00:00 9,4 7,8 - - 16 9 - - S 1024,4 10 0,0
13.11.2018 19:00:00 10,0 8,0 - - 18 10 - - S 1024,0 10 0,0
13.11.2018 18:00:00 9,9 7,6 - - 16 9 - - S 1023,8 10 0,0
13.11.2018 17:00:00 8,3 6,0 - - 13 7 - - S 1023,6 10 0,0
13.11.2018 16:00:00 10,2 6,1 - - 13 7 - - SSW 1023,2 10 0,0
13.11.2018 15:00:00 11,9 7,0 - - 16 9 - - SSW 1022,8 10 0,0
13.11.2018 14:00:00 11,9 7,2 - - 16 9 - - SSW 1022,5 10 0,0
13.11.2018 13:00:00 12,4 6,8 - - 22 12 - - WSW 1022,4 10 0,0
13.11.2018 12:00:00 13,1 8,1 - - 18 10 - - SW 1021,8 10 0,0
13.11.2018 11:00:00 12,0 8,4 - - 22 12 - - SW 1021,7 10 0,0
13.11.2018 10:00:00 10,4 7,5 - - 18 10 - - SW 1020,6 30 0,0
13.11.2018 09:00:00 8,9 6,8 10,0 11,0 18 10 - - SW 1019,7 10 0,0
13.11.2018 08:00:00 7,4 6,1 - - 16 9 - - SSW 1018,5 10 0,0
13.11.2018 07:00:00 7,1 5,6 - - 15 8 - - SSW 1017,4 10 0,0
13.11.2018 06:00:00 7,2 5,4 - - 15 8 - - SSW 1016,3 10 0,0
13.11.2018 05:00:00 7,6 5,7 - - 15 8 - - SSW 1015,2 35 0,0
13.11.2018 04:00:00 8,2 5,9 - - 21 11 - - SSW 1014,1 10 0,0
13.11.2018 03:00:00 8,4 6,1 - - 18 10 - - SSW 1013,5 10 0,0
13.11.2018 02:00:00 8,7 6,4 - - 16 9 - - SSW 1013,1 10 0,0
13.11.2018 01:00:00 8,7 6,2 - - 13 7 - - S 1012,4 10 0,0
13.11.2018 00:00:00 9,4 6,0 - - 21 11 - - SSW 1012,0 45 0,0
12.11.2018 23:00:00 8,6 6,5 - - 13 7 - - S 1011,3 10 0,0
12.11.2018 22:00:00 9,3 7,1 - - 16 9 - - S 1010,8 10 0,0
12.11.2018 21:00:00 8,7 7,0 - - 18 10 - - S 1010,8 27 0,0
12.11.2018 20:00:00 9,7 8,2 - - 13 7 - - SSE 1010,8 10 0,0
12.11.2018 19:00:00 10,4 8,0 - - 21 11 - - S 1010,5 10 0,0
12.11.2018 18:00:00 9,8 7,6 - - 15 8 - - S 1010,6 10 0,0
12.11.2018 17:00:00 11,4 8,2 - - 22 12 - - S 1010,0 10 0,0
12.11.2018 16:00:00 12,5 7,5 - - 16 9 - - S 1009,4 10 0,0
12.11.2018 15:00:00 13,3 7,4 - - 28 15 - - SSW 1008,9 10 0,0
12.11.2018 14:00:00 14,1 7,6 - - 24 13 - - SSW 1008,6 10 0,0
12.11.2018 13:00:00 14,2 7,3 - - 34 18 54 29 S 1008,3 10 0,0
12.11.2018 12:00:00 14,3 9,6 - - 22 12 - - SSW 1008,2 10 0,0
12.11.2018 11:00:00 12,9 9,6 - - 24 13 - - S 1008,5 10 0,0
12.11.2018 10:00:00 11,8 9,8 - - 18 10 - - S 1008,5 10 0,0
12.11.2018 09:00:00 10,8 9,6 10,0 11,0 21 11 - - S 1008,2 10 0,0
12.11.2018 08:00:00 8,8 8,0 - - 16 9 - - S 1007,8 10 0,0
12.11.2018 07:00:00 9,8 8,5 - - 21 11 - - S 1006,8 10 0,0
12.11.2018 06:00:00 9,5 8,5 - - 18 10 - - S 1006,4 10 0,0
12.11.2018 05:00:00 9,8 8,6 - - 22 12 - - S 1006,0 10 0,0
12.11.2018 04:00:00 9,4 8,0 - - 22 12 - - S 1005,8 10 0,0
12.11.2018 03:00:00 9,5 8,0 - - 21 11 - - S 1005,9 40 0,0
12.11.2018 02:00:00 9,7 8,0 - - 21 11 - - S 1005,7 10 0,0
12.11.2018 01:00:00 9,3 7,6 - - 18 10 - - S 1005,5 10 0,0
12.11.2018 00:00:00 9,3 7,5 - - 18 10 - - SSE 1005,4 10 0,0
11.11.2018 23:00:00 9,6 7,6 - - 24 13 - - SSE 1005,1 10 0,0
11.11.2018 22:00:00 9,0 7,3 - - 18 10 - - S 1004,7 10 0,0
11.11.2018 21:00:00 8,7 7,1 - - 18 10 - - S 1004,5 10 0,0
11.11.2018 20:00:00 8,6 7,0 - - 21 11 - - S 1004,0 10 0,0
11.11.2018 19:00:00 8,6 6,9 - - 21 11 - - S 1003,5 10 0,0
11.11.2018 18:00:00 7,7 5,9 - - 15 8 - - S 1002,7 10 0,0
11.11.2018 17:00:00 9,4 6,8 - - 16 9 - - S 1002,3 30 0,0
11.11.2018 16:00:00 11,3 6,9 - - 15 8 - - S 1001,0 35 0,0
11.11.2018 15:00:00 12,6 6,6 - - 22 12 - - SSW 1000,4 10 0,0
11.11.2018 14:00:00 12,5 6,0 - - 22 12 - - SSW 999,7 35 0,0
11.11.2018 13:00:00 12,0 5,7 - - 28 15 - - SSW 999,1 40 0,0
11.11.2018 12:00:00 12,6 7,0 - - 26 14 - - SW 998,7 35 0,0
11.11.2018 11:00:00 11,7 7,0 - - 26 14 46 25 SSW 997,8 10 0,0
11.11.2018 10:00:00 10,8 7,6 - - 22 12 48 26 SSW 997,0 10 0,0
11.11.2018 09:00:00 10,1 7,5 10,0 11,2 24 13 - - SSW 995,5 40 0,0
11.11.2018 08:00:00 8,2 7,4 - - 15 8 - - S 994,4 45 0,2
11.11.2018 07:00:00 9,2 8,5 - - 21 11 - - SSE 993,2 40 0,8
11.11.2018 06:00:00 8,9 8,3 - - 18 10 - - S 993,4 4,7 3,2
11.11.2018 05:00:00 9,0 8,3 - - 21 11 - - SE 993,3 10 0,0
11.11.2018 04:00:00 8,3 7,5 - - 13 7 - - SE 993,4 10 0,0
11.11.2018 03:00:00 7,8 7,3 - - 15 8 - - S 994,1 10 0,0
11.11.2018 02:00:00 8,0 7,6 - - 11 6 - - S 994,3 35 0,0
11.11.2018 01:00:00 8,1 7,4 - - 13 7 - - SSE 994,2 10 0,0
11.11.2018 00:00:00 8,6 8,1 - - 11 6 - - S 994,1 10 0,0
10.11.2018 23:00:00 9,1 8,5 - - 15 8 - - S 994,0 25 0,0
10.11.2018 22:00:00 9,5 8,6 - - 16 9 - - S 993,9 10 0,2
10.11.2018 21:00:00 9,6 8,7 - - 16 9 - - SE 993,9 3,5 0,2
10.11.2018 20:00:00 9,5 8,5 - - 15 8 - - SSE 993,8 10 0,0
10.11.2018 19:00:00 9,8 8,8 - - 15 8 - - SSE 993,6 10 0,6
10.11.2018 18:00:00 9,8 8,3 - - 22 12 - - SSE 993,6 35 0,0
10.11.2018 17:00:00 9,5 8,1 - - 18 10 - - S 993,7 10 0,0
10.11.2018 16:00:00 9,8 8,3 - - 24 13 - - S 993,4 10 0,0
10.11.2018 15:00:00 9,9 8,3 - - 15 8 - - S 993,5 40 0,8
10.11.2018 14:00:00 10,5 8,3 - - 22 12 - - S 993,5 10 1,8
10.11.2018 13:00:00 13,0 9,0 - - 28 15 - - S 993,4 10 0,0
10.11.2018 12:00:00 13,3 9,3 - - 28 15 - - S 993,5 10 0,0
10.11.2018 11:00:00 12,8 10,4 - - 26 14 - - S 994,1 10 0,0
10.11.2018 10:00:00 11,9 9,6 - - 22 12 - - S 994,3 10 0,0
10.11.2018 09:00:00 10,3 9,0 10,2 11,2 21 11 - - S 994,3 10 0,0
10.11.2018 08:00:00 8,1 7,6 - - 16 9 - - S 994,2 10 0,0
10.11.2018 07:00:00 8,5 7,7 - - 15 8 - - S 993,7 16 0,0
10.11.2018 06:00:00 8,3 7,5 - - 15 8 - - S 993,0 10 0,0
10.11.2018 05:00:00 8,3 7,6 - - 13 7 - - S 992,7 10 0,0
10.11.2018 04:00:00 8,8 8,3 - - 15 8 - - S 992,1 10 0,0
10.11.2018 03:00:00 9,1 8,2 - - 16 9 - - S 991,5 10 0,0
10.11.2018 02:00:00 10,3 9,3 - - 16 9 - - S 990,9 10 1,6
10.11.2018 01:00:00 11,3 10,8 - - 22 12 50 27 SSW 991,1 2,2 2,0
10.11.2018 00:00:00 11,3 10,4 - - 34 18 48 26 S 990,4 8 1,4
09.11.2018 23:00:00 10,8 10,0 - - 35 19 52 28 SSE 991,0 4,4 1,2
09.11.2018 22:00:00 10,5 9,7 - - 34 18 65 35 SSE 992,2 6 1,0
09.11.2018 21:00:00 10,4 9,6 - - 44 24 74 40 SSE 993,2 9 3,0
09.11.2018 20:00:00 10,2 8,9 - - 39 21 65 35 SSE 994,4 6 1,4
09.11.2018 19:00:00 10,7 8,3 - - 37 20 61 33 SSE 995,1 10 0,6
09.11.2018 18:00:00 12,1 6,5 - - 42 23 67 36 SSE 996,8 35 0,0
09.11.2018 17:00:00 11,5 7,1 - - 35 19 61 33 SSE 997,9 10 0,0
09.11.2018 16:00:00 11,4 7,2 - - 34 18 54 29 SSE 999,6 10 0,0
09.11.2018 15:00:00 12,0 6,9 - - 31 17 54 29 S 1000,7 10 0,0
09.11.2018 14:00:00 12,5 6,5 - - 29 16 52 28 S 1001,7 10 0,0
09.11.2018 13:00:00 11,9 9,9 - - 26 14 - - S 1002,5 30 0,0
09.11.2018 12:00:00 12,3 9,6 - - 28 15 - - SSE 1002,9 10 0,0
09.11.2018 11:00:00 11,4 10,0 - - 24 13 - - SE 1003,6 10 0,0
09.11.2018 10:00:00 11,0 9,5 - - 24 13 - - SE 1004,8 10 0,0
09.11.2018 09:00:00 9,8 8,7 10,0 11,2 21 11 - - ESE 1005,9 15 0,0
09.11.2018 08:00:00 9,6 8,5 - - 22 12 - - SE 1006,7 10 0,0
09.11.2018 07:00:00 8,4 7,7 - - 21 11 - - SE 1007,1 10 0,0
09.11.2018 06:00:00 8,4 7,5 - - 22 12 - - ESE 1007,6 14 0,0
09.11.2018 05:00:00 8,0 7,2 - - 28 15 - - ESE 1008,0 10 0,0

tt = temperature
td = dewpoint
tt -20cm = temperature -20cm
tt -100cm = temperature -100cm
ff = wind speed
fx = gusts
dd = wind direction
ppp = reduced air pressure
vv = visibility
rr = precipitation

Next stations